Regional Weather Roundup
Issued by NWS

Home | Current Version | Previous Version | Text Only | Print | Product List | Glossary Off
Versions: 1 2 3 4 5 6 7 8 9 10 11 12 13 14 15 16 17 18 19 20 21 22 23 24 25 26 27 28 29 30 31 32 33 34 35 36 37 38 39 40 41 42 43 44 45 46 47 48 49 50

000
ASUS43 KLOT 181110
RWRIL

ILLINOIS REGIONAL WEATHER ROUNDUP
NATIONAL WEATHER SERVICE CHICAGO/ROMEOVILLE IL
600 AM CDT THU SEP 18 2014

NOTE: "FAIR" INDICATES FEW OR NO CLOUDS BELOW 12,000 FEET WITH NO
SIGNIFICANT WEATHER AND/OR OBSTRUCTIONS TO VISIBILITY.

* THESE STATIONS ARE NOT UNDER NWS QUALITY CONTROL. THEY ALSO MAY NOT
  REPORT WEATHER SUCH AS PRECIPITATION OR FOG.

ILZ001-002-007-009-015-016-024-181200-
NORTHWEST ILLINOIS

CITY           SKY/WX    TMP DP  RH WIND       PRES   REMARKS
MOLINE         CLEAR     45  43  93 E5        30.06R
STERLING*      CLEAR     48  45  87 E3        30.06R
SAVANNA*       CLEAR     48  47  94 CALM      30.06R FOG
$$

ILZ003-004-008-010-011-017-018-181200-
NORTH CENTRAL ILLINOIS

CITY           SKY/WX    TMP DP  RH WIND       PRES   REMARKS
ROCKFORD       CLEAR     48  45  89 CALM      30.10R
FREEPORT*      PTCLDY    42  41  96 CALM      30.09R FOG
ROCHELLE*      CLEAR     46  44  92 CALM      30.07R
DE KALB*       CLEAR     46  45  97 NE5       30.08R FOG
PERU*          CLEAR     48  46  93 CALM      30.07R
$$

ILZ005-006-012>014-019>023-181200-
NORTHEAST ILLINOIS

CITY           SKY/WX    TMP DP  RH WIND       PRES   REMARKS
CHICAGO-OHARE  PTCLDY    54  47  77 N7        30.08R
CHICAGO-MIDWAY PTCLDY    54  49  83 N3        30.07R
AURORA         CLEAR     45  42  89 CALM      30.08R FOG
LANSING*       CLEAR     47  46  97 CALM      30.08R
JOLIET*        CLEAR     45  44  95 CALM      30.08R FOG
WAUKEGAN       PTCLDY    52  51  97 NW3       30.09R
DUPAGE AIRPORT CLEAR     45  43  93 N5        30.07R
KANKAKEE*      CLEAR     47  46  99 CALM      30.07R FOG
WHEELING       MOCLDY    53  50  89 N6        30.10R
MORRIS*        CLEAR     48  48 100 NE3       30.06R FOG
ROMEOVILLE*    CLEAR     48  48 100 NE5       30.07R FOG
NORTHERLY ISL    N/A     56  49  77 NW6         N/A
$$

LMZ740>746-181200-
SOUTHERN LAKE MICHIGAN

STATION/POSITION SKY/WX   TEMP    WIND        PRES    VSBY  WAVE
                          AIR SEA DIR/SP/G                  HT/PER
                          (F)     (DEG/KT/KT) (MB)    (MI)  (FT/S)
SOUTHERN BUOY              61 64  300/  6/  6 1018.6R         0
WAUKEGAN HARBOR            54     330/  5/  9   N/A
HARRISON CRIB              58     330/ 10/ 12   N/A
BURNHAM HARBOR             56     350/  5/  9   N/A
CALUMET HARBOR             52      CALM  /  1 1017.0S
MICHIGAN CITY              54      90/  7/ 10   N/A
MICHIGAN CITY 6N           59 64   90/  4/  6   N/A           0
ST. JOSEPH                 58 67   90/  8/ 10   N/A           1/ 2
$$

ILZ025>027-034>036-040-047-049-050-058-095>099-181200-
WEST-CENTRAL ILLINOIS

CITY           SKY/WX    TMP DP  RH WIND       PRES   REMARKS
QUINCY         PTCLDY    51  50  96 SE5       30.05R FOG
GALESBURG*     CLEAR     44  43  97 CALM      30.06R FOG
MACOMB*        FOG       43  43 100 CALM      30.07R VSB 3/4
JACKSONVILLE*  CLOUDY    50  49  99 CALM      30.06R FOG
PITTSFIELD*    CLOUDY    52  50  95 NE5       30.05S FOG
$$

ILZ028>032-037-038-041>044-048-051>054-059>061-181200-
CENTRAL ILLINOIS

CITY           SKY/WX    TMP DP  RH WIND       PRES   REMARKS
PONTIAC        CLEAR     46  46 100 E3        30.06R FOG
DECATUR        CLEAR     49  47  93 CALM      30.06R
PEORIA         PTCLDY    51  48  89 CALM      30.06R FOG
LACON*         FOG       46  46  97 CALM      30.06R VSB 1/4
LINCOLN*       CLEAR     48  47  95 CALM      30.04R FOG
SPRINGFIELD    CLEAR     48  46  93 CALM      30.06R
TAYLORVILLE    FOG       45  45 100 CALM      30.05R VSB 3/4
$$

ILZ033-039-045-046-055>057-062-063-181200-
EAST-CENTRAL ILLINOIS

CITY           SKY/WX    TMP DP  RH WIND       PRES   REMARKS
CHAMPAIGN      CLEAR     50  48  93 E3        30.06R
DANVILLE*      CLEAR     45  44  99 CALM      30.03R FOG
RANTOUL*       CLEAR     51  48  90 CALM      30.07R
MATTOON        CLEAR     51  49  92 CALM      30.06R
PARIS*         CLEAR     46  46 100 CALM      30.07R FOG
$$

ILZ079-100>102-181200-
SOUTHWEST ILLINOIS

CITY           SKY/WX    TMP DP  RH WIND       PRES   REMARKS
ALTON          CLOUDY    59  56  89 NE3       30.02S
BELLEVILLE     CLOUDY    59  59  99 CALM      30.01R
CAHOKIA*       CLOUDY    61  58  90 NE3       30.01R
SPARTA*        MOCLDY    54  53  97 NE3       30.01S FOG
$$

ILZ064>066-069>071-074>076-080>082-084>086-088>090-092>094-181200-
SOUTH-CENTRAL ILLINOIS

CITY           SKY/WX    TMP DP  RH WIND       PRES   REMARKS
CARBONDALE     MOCLDY    58  55  90 E3        30.00R
CAIRO*         CLOUDY    62  60  93 CALM      29.99R FOG
EFFINGHAM*     CLOUDY    53  50  90 CALM      30.05R
MARION         MOCLDY    57  55  94 N5        30.00R
MT. VERNON     CLOUDY    59  54  82 NE3       30.03R
CENTRALIA*     CLOUDY    59  54  84 NE3       30.02R
SALEM*         CLOUDY    61  57  87 NE3       30.03R
METROPOLIS*    CLOUDY    61  61 100 CALM      29.98R
$$

ILZ067-068-072-073-078-083-087-091-181200-
SOUTHEAST ILLINOIS

CITY           SKY/WX    TMP DP  RH WIND       PRES   REMARKS
LAWRENCEVILLE  CLOUDY    55  53  93 NE6       30.05R FOG
FLORA*         CLEAR     58  55  92 N5        30.05R
FAIRFIELD*     CLOUDY   N/A N/A N/A CALM      30.02R
HARRISBURG*    PTCLDY    59  56  91 NE3       30.01S
ROBINSON*      FOG       47  47 100 CALM      30.06R VSB 1/4
CARMI*         CLOUDY    60  57  88 CALM      30.01R
$$

ABBREVIATIONS USED IN REMARKS
   TC - TEMPERATURE IN CELSIUS
  WCI - WIND CHILL INDEX
   HX - HEAT INDEX
  VSB - VISIBILITY
$$




USA.gov is the U.S. government's official web portal to all federal, state and local government web resources and services.